Satellite-Ground Cal/Val Site Overpasses Predictions

Prediction of Satellite NPP Overpassing Cal/Val Site: Antarctic Dome C

Ground Cal/Val Site Location: Latitude: -75.10, Longitude: 123.35; Satellite-Ground Site NADIR distance within 100 km.

Table of predicted overpasses for the next 14.0 days since TLE Epoch: 6/15/2018
Interval Starting Time Ending Time Minimum Distance Time Minimum Distance (km)
1 06/16/2018 07:43:56 06/16/2018 07:44:17 06/16/2018 07:44:06 68.88
2 06/17/2018 07:25:04 06/17/2018 07:25:31 06/17/2018 07:25:17 39.20
3 06/19/2018 15:07:30 06/19/2018 15:07:38 06/19/2018 15:07:34 95.52
4 06/20/2018 14:48:29 06/20/2018 14:48:58 06/20/2018 14:48:43 15.85
5 06/22/2018 07:31:19 06/22/2018 07:31:48 06/22/2018 07:31:34 3.45
6 06/25/2018 14:54:45 06/25/2018 14:55:14 06/25/2018 14:55:00 20.78
7 06/26/2018 14:36:04 06/26/2018 14:36:18 06/26/2018 14:36:11 86.34
8 06/27/2018 07:37:35 06/27/2018 07:38:02 06/27/2018 07:37:49 33.32


NCC Satellite Cal/Val Overpasses Prediction Service
